Flag for Germany Weather past 2 weeks in Maintal, Hesse, Germany

Now
62 °F

Overcast.


Feels Like: 62 °F
Forecast: 47 / 62 °F
Wind: 7 mph from Southwest

Location: Frankfurt / M-Flughafen

Current Time: Apr 26, 2015 at 12:16:25 PM

Latest Report: Apr 26, 2015 at 12:00 PM


Visibility: 15 mi

Pressure: 29.78 "Hg

Humidity: 66%

Dew point: 50 °F

Location of MaintalLocation

Historic Weather in Maintal — Graph

°F

Maintal temperature yesterday

Maximum temperature yesterday: 64 °F (at 2:00 PM)
Minimum temperature yesterday: 43 °F (at 6:00 AM)
Average temperature yesterday: 54 °F

Past Weeks' High & Low Weather Summary

 TemperatureHumidityPressure
High77 °F (Apr 15, 6:00 PM)100% (Apr 26, 3:00 AM)30.47 "Hg (Apr 26, 3:00 AM)
Low35 °F (Apr 23, 6:00 AM)20% (Apr 21, 5:00 PM)29.80 "Hg (Apr 25, 7:00 PM)
Average55 °F56%30.16 "Hg
* Reported Apr 11 10:00 AM — Apr 26 10:00 AM, Maintal, Weather by CustomWeather, © 2015

Note: Actual official high and low records may vary slightly from our data, if they occured in-between our weather recording intervals... More about our weather records

Advertising

Maintal weather history for previous 24 hours

 ConditionsComfort  
Time TempWeatherWind HumidityBarometerVisibility
10:00 AM
Sun, Apr 26
60 °FOvercast.5 mph77%29.80 "Hg12 mi
9:00 AM57 °FLow clouds.6 mph90%29.81 "Hg7 mi
8:00 AM55 °FFog.3 mph100%29.81 "Hg4 mi
7:00 AM54 °FFog.5 mph100%29.81 "Hg4 mi
6:00 AM53 °FFog.3 mph100%29.81 "Hg4 mi
4:00 AM51 °FOvercast.2 mph100%29.82 "Hg6 mi
3:00 AM52 °FFog.2 mph100%29.83 "Hg4 mi
2:00 AM51 °FFog.3 mph98%29.84 "Hg5 mi
1:00 AM54 °FOvercast.2 mph97%29.84 "Hg6 mi
12:00 AM54 °FOvercast.2 mph97%29.83 "Hg6 mi
10:00 PM
Sat, Apr 25
56 °FOvercast.3 mph92%29.83 "Hg12 mi
9:00 PM57 °FOvercast.5 mph88%29.82 "Hg17 mi
8:00 PM59 °FOvercast.6 mph78%29.80 "Hg12 mi
7:00 PM60 °FOvercast.5 mph77%29.80 "Hg14 mi
6:00 PM60 °FLight rain. Overcast.7 mph75%29.81 "Hg12 mi
4:00 PM63 °FLight rain. Overcast.8 mph67%29.80 "Hg14 mi
3:00 PM62 °FLight rain. Overcast.6 mph61%29.81 "Hg19 mi
2:00 PM64 °FOvercast.3 mph53%29.81 "Hg19 mi
1:00 PM59 °FOvercast.5 mph69%29.84 "Hg17 mi
12:00 PM54 °FLight rain. Overcast.5 mph80%29.86 "Hg8 mi
Weather by CustomWeather, © 2015

See weather overviewHow to use our weather pages